QPF
0.01 0.02 0.03 0.02 0.01 0.01 0.01 0.03 0.03 0.05 0.05 0.03 0.06 0.07 0.06 0.06 0.06 0.05 0.06 0.05 0.07 0.07 0.07 0.05 0.03 0.01 0.01 0.01 0.00 0.00 0.01 0.01 0.01 0.01 0.02 0.04 0.04 0.03 0.02 0.02 0.02 0.03 0.03 0.04
0.01 0.01 0.01 0.01 0.00 0.01 0.01 0.02 0.02 0.02 0.02 0.02 0.05 0.06 0.05 0.07 0.07 0.05 0.09 0.07 0.09 0.05 0.05 0.03 0.01 0.01 0.01 0.01 0.00 0.00 0.00 0.01 0.01 0.01 0.01 0.03 0.03 0.02 0.02 0.02 0.02 0.02 0.02 0.03
0.01 0.01 0.01 0.00 0.00 0.00 0.01 0.01 0.01 0.01 0.01 0.02 0.05 0.05 0.04 0.05 0.05 0.04 0.07 0.05 0.03 0.03 0.03 0.02 0.02 0.01 0.01 0.01 0.00 0.00 0.00 0.00 0.00 0.01 0.01 0.01 0.01 0.01 0.01 0.01 0.02 0.02 0.02 0.02
0.01 0.01 0.00 0.00 0.00 0.00 0.01 0.01 0.00 0.01 0.02 0.03 0.05 0.07 0.05 0.04 0.03 0.03 0.04 0.04 0.04 0.04 0.04 0.05 0.03 0.03 0.02 0.01 0.01 0.00 0.01 0.01 0.00 0.00 0.00 0.01 0.01 0.01 0.01 0.01 0.02 0.02 0.02 0.02
0.01 0.00 0.01 0.00 0.00 0.00 0.00 0.00 0.00 0.00 0.02 0.03 0.04 0.05 0.06 0.05 0.04 0.05 0.04 0.03 0.05 0.04 0.03 0.06 0.06 0.05 0.04 0.02 0.01 0.01 0.01 0.00 0.00 0.00 0.01 0.01 0.01 0.01 0.01 0.01 0.01 0.01 0.01 0.01
0.00 0.00 0.01 0.01 0.00 0.00 0.00 0.00 0.00 0.01 0.02 0.04 0.06 0.05 0.08 0.07 0.05 0.04 0.04 0.03 0.04 0.03 0.03 0.05 0.07 0.04 0.05 0.03 0.02 0.01 0.00 0.00 0.01 0.01 0.01 0.01 0.01 0.00 0.01 0.01 0.01 0.01 0.01 0.01
0.00 0.01 0.00 0.00 0.00 0.00 0.00 0.00 0.01 0.02 0.03 0.04 0.05 0.04 0.04 0.04 0.05 0.04 0.04 0.03 0.03 0.03 0.03 0.03 0.03 0.04 0.04 0.03 0.02 0.01 0.01 0.01 0.01 0.01 0.01 0.01 0.00 0.01 0.01 0.01 0.01 0.01 0.01 0.01
0.00 0.01 0.01 0.00 0.00 0.00 0.00 0.01 0.02 0.04 0.05 0.05 0.04 0.06 0.06 0.04 0.05 0.06 0.05 0.04 0.05 0.06 0.03 0.02 0.02 0.03 0.03 0.03 0.02 0.02 0.01 0.01 0.01 0.01 0.01 0.01 0.01 0.01 0.01 0.01 0.01 0.01 0.01 0.01
0.00 0.01 0.01 0.01 0.00 0.00 0.01 0.01 0.02 0.03 0.04 0.06 0.05 0.08 0.07 0.06 0.07 0.07 0.08 0.04 0.04 0.05 0.05 0.03 0.02 0.03 0.02 0.02 0.02 0.02 0.01 0.01 0.01 0.01 0.01 0.02 0.02 0.02 0.01 0.01 0.01 0.02 0.02 0.01
0.00 0.01 0.01 0.01 0.00 0.00 0.00 0.01 0.02 0.03 0.04 0.05 0.07 0.11 0.12 0.06 0.07 0.07 0.08 0.05 0.03 0.03 0.05 0.04 0.02 0.02 0.02 0.02 0.01 0.01 0.02 0.03 0.02 0.02 0.02 0.02 0.02 0.02 0.02 0.01 0.02 0.02 0.02 0.02
0.01 0.01 0.02 0.02 0.01 0.01 0.01 0.01 0.02 0.03 0.03 0.03 0.06 0.11 0.10 0.05 0.05 0.05 0.05 0.04 0.03 0.03 0.03 0.03 0.02 0.01 0.01 0.01 0.01 0.01 0.02 0.02 0.02 0.01 0.01 0.01 0.02 0.02 0.02 0.02 0.02 0.02 0.02 0.01
0.01 0.01 0.01 0.03 0.01 0.01 0.02 0.02 0.02 0.02 0.03 0.03 0.04 0.06 0.03 0.02 0.03 0.06 0.04 0.04 0.04 0.03 0.02 0.02 0.02 0.01 0.00 0.01 0.01 0.01 0.01 0.02 0.02 0.02 0.03 0.03 0.04 0.04 0.04 0.03 0.02 0.03 0.02 0.02
0.02 0.01 0.01 0.02 0.03 0.02 0.01 0.01 0.01 0.01 0.02 0.03 0.03 0.02 0.01 0.01 0.02 0.04 0.05 0.03 0.03 0.03 0.03 0.03 0.01 0.01 0.01 0.01 0.01 0.02 0.02 0.03 0.04 0.04 0.05 0.07 0.12 0.15 0.12 0.05 0.05 0.04 0.02 0.02
0.01 0.01 0.01 0.02 0.03 0.03 0.01 0.01 0.01 0.02 0.04 0.02 0.02 0.02 0.01 0.02 0.04 0.08 0.08 0.05 0.04 0.03 0.03 0.02 0.01 0.01 0.01 0.01 0.01 0.03 0.04 0.04 0.04 0.05 0.05 0.08 0.12 0.09 0.07 0.06 0.08 0.05 0.03 0.02
0.01 0.01 0.01 0.01 0.01 0.02 0.01 0.01 0.01 0.01 0.02 0.03 0.02 0.02 0.03 0.03 0.06 0.09 0.09 0.07 0.05 0.04 0.03 0.02 0.01 0.01 0.02 0.02 0.02 0.03 0.03 0.03 0.04 0.04 0.04 0.04 0.04 0.03 0.03 0.04 0.05 0.03 0.02 0.02
0.01 0.01 0.01 0.01 0.01 0.01 0.01 0.01 0.01 0.01 0.02 0.02 0.02 0.03 0.03 0.03 0.05 0.07 0.08 0.06 0.04 0.05 0.04 0.04 0.03 0.03 0.04 0.04 0.04 0.06 0.03 0.03 0.02 0.02 0.02 0.02 0.01 0.01 0.01 0.02 0.03 0.03 0.04 0.05
0.01 0.01 0.02 0.03 0.03 0.02 0.02 0.01 0.01 0.01 0.02 0.01 0.03 0.04 0.03 0.04 0.04 0.04 0.04 0.04 0.04 0.06 0.07 0.07 0.10 0.14 0.18 0.13 0.09 0.08 0.07 0.07 0.04 0.02 0.02 0.01 0.00 0.01 0.01 0.02 0.04 0.04 0.05 0.05
0.01 0.01 0.02 0.03 0.02 0.04 0.03 0.02 0.01 0.02 0.02 0.02 0.03 0.04 0.05 0.05 0.04 0.03 0.04 0.04 0.05 0.06 0.09 0.11 0.17 0.15 0.12 0.08 0.08 0.08 0.08 0.08 0.04 0.02 0.01 0.01 0.01 0.00 0.01 0.02 0.02 0.02 0.02 0.02
0.01 0.01 0.02 0.03 0.02 0.03 0.02 0.02 0.02 0.02 0.02 0.02 0.03 0.05 0.09 0.12 0.05 0.03 0.04 0.04 0.04 0.06 0.11 0.13 0.15 0.10 0.06 0.04 0.06 0.07 0.05 0.03 0.02 0.01 0.01 0.01 0.01 0.01 0.01 0.02 0.02 0.01 0.01 0.01
0.01 0.02 0.02 0.03 0.02 0.02 0.03 0.03 0.02 0.02 0.04 0.04 0.04 0.05 0.07 0.08 0.05 0.04 0.03 0.03 0.04 0.05 0.08 0.11 0.14 0.11 0.07 0.05 0.04 0.03 0.03 0.03 0.02 0.01 0.00 0.00 0.01 0.01 0.01 0.01 0.01 0.01 0.01 0.01
0.02 0.02 0.02 0.02 0.03 0.03 0.04 0.04 0.02 0.03 0.04 0.05 0.07 0.10 0.12 0.10 0.06 0.04 0.02 0.02 0.05 0.07 0.06 0.06 0.12 0.10 0.06 0.05 0.04 0.02 0.02 0.02 0.01 0.01 0.01 0.00 0.01 0.01 0.01 0.01 0.00 0.01 0.01 0.01
0.02 0.02 0.02 0.02 0.03 0.04 0.02 0.02 0.02 0.03 0.01 0.03 0.05 0.04 0.05 0.05 0.04 0.03 0.02 0.02 0.04 0.05 0.05 0.04 0.08 0.10 0.06 0.05 0.04 0.03 0.02 0.01 0.01 0.02 0.02 0.01 0.01 0.01 0.00 0.00 0.00 0.01 0.01 0.01
0.02 0.04 0.04 0.03 0.03 0.02 0.01 0.02 0.02 0.02 0.02 0.03 0.03 0.03 0.03 0.04 0.04 0.03 0.03 0.03 0.04 0.04 0.03 0.02 0.05 0.07 0.07 0.07 0.07 0.04 0.03 0.02 0.02 0.02 0.02 0.01 0.01 0.01 0.01 0.01 0.01 0.01 0.00 0.00
0.03 0.03 0.03 0.02 0.02 0.02 0.03 0.04 0.03 0.02 0.03 0.03 0.02 0.02 0.03 0.04 0.04 0.03 0.03 0.02 0.03 0.04 0.02 0.02 0.04 0.06 0.10 0.11 0.10 0.08 0.06 0.04 0.04 0.04 0.03 0.01 0.01 0.02 0.01 0.01 0.01 0.01 0.01 0.00
0.06 0.04 0.03 0.03 0.03 0.03 0.03 0.03 0.02 0.02 0.02 0.02 0.02 0.02 0.02 0.02 0.03 0.03 0.03 0.02 0.02 0.02 0.02 0.03 0.06 0.08 0.12 0.13 0.13 0.13 0.11 0.09 0.07 0.06 0.03 0.01 0.01 0.02 0.02 0.01 0.01 0.01 0.01 0.01
0.06 0.05 0.05 0.05 0.04 0.04 0.04 0.03 0.01 0.01 0.01 0.01 0.01 0.01 0.01 0.01 0.02 0.03 0.03 0.02 0.01 0.01 0.02 0.02 0.03 0.05 0.09 0.11 0.11 0.10 0.08 0.08 0.07 0.04 0.02 0.01 0.01 0.01 0.01 0.01 0.01 0.01 0.01 0.01
MSLP
1012.69 1013.70 1014.45 1014.90 1015.07 1015.00 1014.76 1014.43 1014.07 1013.71 1013.35 1012.97 1012.55 1012.05 1011.47 1010.81 1010.09 1009.38 1008.71 1008.13 1007.67 1007.32 1007.07 1006.89 1006.73 1006.57 1006.40 1006.22 1006.06 1005.95 1005.91 1005.96 1006.08 1006.25 1006.43 1006.58 1006.65 1006.64 1006.54 1006.38 1006.19 1006.03 1005.91 1005.87
1013.66 1014.42 1014.91 1015.12 1015.12 1014.96 1014.73 1014.50 1014.29 1014.10 1013.90 1013.64 1013.27 1012.75 1012.06 1011.25 1010.37 1009.49 1008.69 1008.04 1007.57 1007.26 1007.10 1007.03 1006.98 1006.92 1006.81 1006.67 1006.52 1006.38 1006.30 1006.31 1006.40 1006.56 1006.74 1006.91 1007.01 1007.03 1006.95 1006.81 1006.63 1006.45 1006.33 1006.27
1014.23 1014.73 1014.97 1014.99 1014.86 1014.69 1014.55 1014.48 1014.48 1014.52 1014.53 1014.41 1014.10 1013.55 1012.78 1011.82 1010.77 1009.74 1008.82 1008.10 1007.61 1007.35 1007.27 1007.31 1007.38 1007.42 1007.40 1007.30 1007.16 1007.01 1006.90 1006.87 1006.93 1007.07 1007.26 1007.45 1007.59 1007.65 1007.62 1007.51 1007.36 1007.20 1007.07 1006.99
1014.32 1014.56 1014.58 1014.46 1014.30 1014.20 1014.23 1014.41 1014.70 1015.02 1015.26 1015.31 1015.09 1014.54 1013.68 1012.59 1011.38 1010.20 1009.16 1008.36 1007.85 1007.62 1007.62 1007.76 1007.94 1008.07 1008.13 1008.08 1007.95 1007.79 1007.66 1007.60 1007.64 1007.77 1007.96 1008.17 1008.36 1008.48 1008.51 1008.46 1008.35 1008.21 1008.08 1007.98
1013.95 1013.95 1013.81 1013.62 1013.52 1013.58 1013.86 1014.35 1014.98 1015.62 1016.12 1016.36 1016.23 1015.69 1014.77 1013.57 1012.22 1010.89 1009.74 1008.87 1008.33 1008.11 1008.16 1008.37 1008.63 1008.84 1008.95 1008.94 1008.83 1008.67 1008.52 1008.44 1008.46 1008.58 1008.78 1009.02 1009.25 1009.43 1009.53 1009.54 1009.48 1009.38 1009.26 1009.14
1013.27 1013.07 1012.82 1012.64 1012.65 1012.94 1013.53 1014.37 1015.35 1016.31 1017.08 1017.50 1017.47 1016.95 1015.99 1014.69 1013.23 1011.80 1010.55 1009.61 1009.04 1008.81 1008.88 1009.13 1009.43 1009.69 1009.84 1009.85 1009.75 1009.59 1009.43 1009.33 1009.34 1009.45 1009.65 1009.91 1010.17 1010.40 1010.56 1010.63 1010.63 1010.57 1010.47 1010.35
1012.48 1012.12 1011.82 1011.70 1011.88 1012.42 1013.31 1014.48 1015.78 1017.03 1018.02 1018.60 1018.66 1018.17 1017.19 1015.84 1014.32 1012.82 1011.51 1010.53 1009.93 1009.69 1009.75 1010.00 1010.31 1010.58 1010.73 1010.76 1010.66 1010.50 1010.33 1010.22 1010.21 1010.31 1010.51 1010.77 1011.06 1011.31 1011.51 1011.63 1011.67 1011.65 1011.57 1011.47
1011.78 1011.33 1011.02 1011.00 1011.34 1012.10 1013.25 1014.68 1016.22 1017.67 1018.81 1019.50 1019.62 1019.16 1018.19 1016.84 1015.31 1013.81 1012.51 1011.52 1010.91 1010.66 1010.70 1010.93 1011.22 1011.47 1011.61 1011.62 1011.52 1011.35 1011.18 1011.06 1011.05 1011.14 1011.33 1011.58 1011.86 1012.12 1012.32 1012.46 1012.52 1012.53 1012.49 1012.40
1011.34 1010.85 1010.57 1010.63 1011.11 1012.03 1013.34 1014.91 1016.57 1018.09 1019.29 1020.01 1020.15 1019.72 1018.80 1017.50 1016.05 1014.63 1013.39 1012.46 1011.89 1011.65 1011.68 1011.87 1012.12 1012.32 1012.42 1012.41 1012.30 1012.13 1011.97 1011.86 1011.84 1011.93 1012.10 1012.33 1012.58 1012.81 1012.99 1013.12 1013.18 1013.20 1013.17 1013.11
1011.21 1010.72 1010.49 1010.62 1011.18 1012.17 1013.51 1015.08 1016.71 1018.18 1019.32 1019.99 1020.12 1019.72 1018.87 1017.70 1016.40 1015.13 1014.05 1013.25 1012.76 1012.56 1012.59 1012.75 1012.95 1013.10 1013.16 1013.11 1012.99 1012.84 1012.69 1012.61 1012.61 1012.69 1012.85 1013.05 1013.26 1013.44 1013.57 1013.65 1013.68 1013.68 1013.65 1013.61
1011.36 1010.93 1010.75 1010.93 1011.49 1012.43 1013.67 1015.10 1016.55 1017.83 1018.81 1019.36 1019.45 1019.08 1018.34 1017.35 1016.28 1015.25 1014.40 1013.79 1013.44 1013.32 1013.37 1013.51 1013.66 1013.76 1013.78 1013.72 1013.61 1013.47 1013.37 1013.33 1013.37 1013.47 1013.62 1013.79 1013.94 1014.06 1014.12 1014.13 1014.11 1014.06 1014.01 1013.96
1011.65 1011.32 1011.21 1011.40 1011.90 1012.71 1013.75 1014.91 1016.06 1017.06 1017.80 1018.18 1018.20 1017.87 1017.27 1016.51 1015.72 1015.00 1014.43 1014.06 1013.89 1013.89 1013.99 1014.13 1014.25 1014.31 1014.30 1014.23 1014.14 1014.06 1014.02 1014.04 1014.13 1014.27 1014.43 1014.58 1014.68 1014.72 1014.71 1014.64 1014.54 1014.43 1014.34 1014.26
1011.95 1011.75 1011.71 1011.89 1012.29 1012.90 1013.67 1014.49 1015.28 1015.94 1016.38 1016.58 1016.52 1016.24 1015.81 1015.31 1014.83 1014.45 1014.20 1014.10 1014.14 1014.27 1014.44 1014.59 1014.69 1014.73 1014.71 1014.66 1014.61 1014.59 1014.63 1014.73 1014.89 1015.08 1015.26 1015.40 1015.46 1015.45 1015.35 1015.21 1015.03 1014.86 1014.71 1014.58
1012.16 1012.10 1012.14 1012.29 1012.57 1012.96 1013.41 1013.87 1014.28 1014.58 1014.74 1014.75 1014.63 1014.41 1014.15 1013.92 1013.77 1013.72 1013.79 1013.97 1014.21 1014.48 1014.72 1014.91 1015.01 1015.05 1015.04 1015.01 1015.01 1015.07 1015.20 1015.39 1015.63 1015.87 1016.08 1016.22 1016.26 1016.20 1016.05 1015.83 1015.59 1015.36 1015.15 1014.98
1012.24 1012.32 1012.41 1012.54 1012.69 1012.85 1013.00 1013.12 1013.17 1013.15 1013.05 1012.91 1012.74 1012.59 1012.51 1012.54 1012.69 1012.95 1013.32 1013.74 1014.17 1014.57 1014.89 1015.11 1015.23 1015.27 1015.28 1015.30 1015.36 1015.49 1015.71 1015.99 1016.30 1016.59 1016.83 1016.98 1017.01 1016.92 1016.73 1016.47 1016.19 1015.92 1015.67 1015.47
1012.21 1012.40 1012.54 1012.62 1012.65 1012.61 1012.49 1012.31 1012.07 1011.78 1011.49 1011.23 1011.05 1010.98 1011.07 1011.32 1011.73 1012.26 1012.87 1013.49 1014.09 1014.59 1014.97 1015.23 1015.38 1015.45 1015.49 1015.55 1015.67 1015.87 1016.15 1016.50 1016.86 1017.19 1017.45 1017.60 1017.62 1017.53 1017.33 1017.06 1016.77 1016.49 1016.24 1016.01
1012.16 1012.41 1012.55 1012.58 1012.48 1012.26 1011.94 1011.53 1011.06 1010.59 1010.17 1009.85 1009.69 1009.71 1009.94 1010.37 1010.98 1011.72 1012.51 1013.29 1013.99 1014.58 1015.02 1015.32 1015.49 1015.60 1015.68 1015.79 1015.96 1016.21 1016.53 1016.91 1017.29 1017.63 1017.89 1018.04 1018.06 1017.97 1017.78 1017.54 1017.28 1017.02 1016.79 1016.58
1012.16 1012.41 1012.50 1012.44 1012.22 1011.86 1011.37 1010.80 1010.20 1009.62 1009.14 1008.82 1008.70 1008.81 1009.16 1009.74 1010.49 1011.36 1012.27 1013.15 1013.93 1014.57 1015.06 1015.39 1015.61 1015.76 1015.88 1016.03 1016.24 1016.51 1016.85 1017.23 1017.60 1017.92 1018.15 1018.29 1018.31 1018.23 1018.07 1017.88 1017.67 1017.47 1017.30 1017.13
1012.27 1012.42 1012.41 1012.24 1011.89 1011.40 1010.80 1010.13 1009.47 1008.87 1008.39 1008.11 1008.05 1008.25 1008.70 1009.38 1010.23 1011.18 1012.15 1013.08 1013.90 1014.58 1015.10 1015.48 1015.74 1015.93 1016.10 1016.29 1016.52 1016.80 1017.13 1017.47 1017.79 1018.07 1018.26 1018.37 1018.38 1018.32 1018.21 1018.07 1017.94 1017.83 1017.73 1017.63
1012.44 1012.44 1012.28 1011.95 1011.47 1010.87 1010.20 1009.50 1008.83 1008.26 1007.85 1007.65 1007.68 1007.97 1008.50 1009.24 1010.14 1011.12 1012.11 1013.05 1013.89 1014.59 1015.15 1015.57 1015.88 1016.13 1016.34 1016.56 1016.81 1017.08 1017.37 1017.66 1017.92 1018.13 1018.27 1018.34 1018.34 1018.30 1018.24 1018.18 1018.13 1018.11 1018.09 1018.06
1012.57 1012.38 1012.02 1011.53 1010.93 1010.25 1009.54 1008.85 1008.24 1007.76 1007.45 1007.35 1007.49 1007.87 1008.47 1009.25 1010.16 1011.14 1012.12 1013.05 1013.89 1014.61 1015.19 1015.65 1016.02 1016.32 1016.58 1016.83 1017.08 1017.34 1017.59 1017.81 1018.01 1018.15 1018.23 1018.27 1018.26 1018.25 1018.23 1018.24 1018.28 1018.34 1018.40 1018.44
1012.55 1012.13 1011.58 1010.93 1010.22 1009.49 1008.79 1008.16 1007.65 1007.30 1007.13 1007.17 1007.42 1007.89 1008.54 1009.34 1010.25 1011.21 1012.16 1013.07 1013.90 1014.62 1015.23 1015.73 1016.15 1016.50 1016.80 1017.08 1017.33 1017.57 1017.78 1017.95 1018.08 1018.16 1018.20 1018.21 1018.21 1018.21 1018.24 1018.31 1018.42 1018.55 1018.67 1018.76
1012.23 1011.61 1010.89 1010.11 1009.34 1008.61 1007.97 1007.44 1007.08 1006.88 1006.88 1007.06 1007.44 1007.99 1008.68 1009.50 1010.39 1011.31 1012.23 1013.10 1013.90 1014.62 1015.25 1015.79 1016.25 1016.64 1016.98 1017.28 1017.54 1017.75 1017.93 1018.05 1018.13 1018.18 1018.19 1018.19 1018.20 1018.23 1018.30 1018.42 1018.58 1018.76 1018.92 1019.02
1011.53 1010.76 1009.93 1009.09 1008.32 1007.64 1007.10 1006.73 1006.54 1006.53 1006.70 1007.04 1007.53 1008.16 1008.90 1009.71 1010.57 1011.45 1012.32 1013.15 1013.93 1014.63 1015.27 1015.83 1016.32 1016.74 1017.11 1017.42 1017.67 1017.88 1018.03 1018.13 1018.18 1018.21 1018.21 1018.22 1018.25 1018.32 1018.43 1018.58 1018.77 1018.96 1019.13 1019.24
1010.47 1009.62 1008.75 1007.93 1007.22 1006.67 1006.29 1006.11 1006.11 1006.30 1006.64 1007.13 1007.73 1008.42 1009.18 1009.98 1010.81 1011.65 1012.46 1013.24 1013.98 1014.67 1015.30 1015.86 1016.37 1016.81 1017.18 1017.50 1017.75 1017.94 1018.08 1018.17 1018.21 1018.24 1018.26 1018.29 1018.35 1018.45 1018.59 1018.76 1018.96 1019.15 1019.31 1019.40
1009.13 1008.28 1007.46 1006.74 1006.18 1005.80 1005.62 1005.65 1005.86 1006.24 1006.74 1007.35 1008.04 1008.77 1009.54 1010.32 1011.11 1011.89 1012.65 1013.39 1014.09 1014.75 1015.37 1015.92 1016.42 1016.86 1017.23 1017.53 1017.78 1017.96 1018.09 1018.17 1018.23 1018.27 1018.32 1018.38 1018.47 1018.59 1018.75 1018.94 1019.13 1019.30 1019.44 1019.49
Thickness
5826 5810 5799 5806 5813 5811 5807 5801 5795 5807 5825 5814 5805 5803 5810 5816 5813 5809 5807 5807 5806 5807 5810 5811 5812 5811 5808 5806 5803 5801 5798 5797 5795 5791 5788 5785 5783 5784 5784 5784 5783 5782 5781 5780
5805 5801 5820 5828 5826 5819 5810 5799 5798 5806 5822 5813 5802 5801 5810 5814 5813 5812 5809 5808 5807 5806 5806 5807 5808 5808 5807 5804 5802 5800 5798 5797 5795 5792 5789 5787 5784 5783 5783 5783 5782 5781 5780 5778
5797 5814 5833 5827 5820 5813 5808 5801 5801 5801 5811 5812 5801 5789 5798 5808 5814 5814 5814 5813 5810 5809 5806 5806 5806 5804 5804 5802 5801 5800 5797 5796 5795 5793 5789 5786 5783 5781 5780 5779 5779 5779 5778 5777
5808 5826 5827 5820 5817 5817 5800 5822 5820 5810 5793 5781 5790 5761 5784 5796 5801 5806 5808 5809 5809 5810 5809 5806 5804 5801 5801 5801 5801 5799 5797 5795 5794 5792 5788 5783 5778 5775 5776 5777 5777 5777 5776 5775
5804 5821 5819 5814 5822 5825 5816 5830 5822 5812 5793 5778 5780 5764 5773 5791 5790 5799 5806 5809 5811 5811 5811 5807 5804 5802 5801 5802 5800 5798 5795 5793 5792 5791 5787 5783 5779 5777 5776 5776 5774 5773 5773 5772
5814 5830 5828 5827 5835 5836 5831 5820 5809 5795 5779 5759 5771 5763 5764 5782 5794 5801 5807 5810 5811 5811 5810 5807 5805 5803 5800 5800 5799 5796 5793 5790 5790 5788 5785 5782 5778 5776 5773 5771 5769 5769 5768 5768
5799 5814 5830 5836 5821 5825 5818 5788 5762 5755 5745 5749 5771 5765 5769 5797 5808 5811 5810 5811 5811 5809 5806 5804 5802 5799 5798 5797 5796 5794 5791 5788 5788 5786 5783 5780 5778 5775 5771 5769 5767 5765 5763 5763
5775 5781 5814 5827 5820 5810 5808 5790 5757 5742 5737 5746 5764 5760 5781 5808 5814 5817 5816 5814 5811 5806 5805 5803 5802 5800 5798 5797 5794 5792 5789 5786 5785 5783 5780 5778 5776 5772 5770 5767 5765 5763 5761 5760
5776 5782 5819 5830 5834 5822 5803 5791 5787 5760 5751 5742 5751 5767 5787 5807 5807 5808 5808 5807 5804 5804 5803 5802 5801 5799 5797 5795 5793 5791 5788 5785 5783 5781 5777 5774 5772 5769 5767 5765 5763 5761 5760 5758
5792 5780 5805 5824 5829 5825 5815 5800 5774 5756 5738 5731 5744 5756 5765 5784 5793 5799 5798 5800 5802 5803 5801 5799 5799 5798 5796 5795 5793 5791 5787 5783 5781 5778 5775 5772 5768 5766 5764 5761 5759 5757 5755 5754
5795 5776 5787 5801 5800 5798 5800 5792 5776 5757 5753 5735 5729 5750 5793 5793 5797 5797 5798 5800 5801 5800 5799 5797 5797 5797 5795 5793 5791 5787 5784 5780 5777 5774 5771 5768 5765 5763 5760 5757 5755 5754 5752 5750
5793 5773 5764 5783 5808 5817 5806 5795 5777 5756 5749 5746 5737 5754 5807 5805 5805 5802 5800 5801 5801 5800 5798 5797 5795 5793 5791 5788 5786 5784 5781 5777 5774 5771 5767 5763 5761 5758 5755 5752 5751 5749 5747 5745
5791 5766 5748 5757 5776 5794 5794 5795 5788 5772 5754 5743 5737 5757 5802 5802 5802 5802 5801 5800 5798 5796 5794 5793 5790 5788 5786 5783 5782 5780 5777 5774 5770 5766 5762 5758 5756 5753 5750 5748 5746 5744 5742 5739
5796 5763 5752 5747 5757 5774 5779 5789 5790 5773 5750 5746 5752 5765 5784 5790 5793 5795 5797 5796 5795 5793 5791 5789 5785 5783 5782 5779 5777 5776 5773 5771 5767 5762 5758 5754 5751 5748 5745 5743 5741 5739 5736 5732
5781 5759 5764 5769 5780 5783 5784 5787 5789 5779 5771 5760 5766 5770 5781 5789 5792 5794 5794 5792 5789 5787 5786 5784 5781 5778 5776 5774 5772 5771 5768 5765 5762 5757 5752 5748 5746 5744 5741 5737 5735 5732 5729 5726
5766 5755 5758 5761 5777 5780 5780 5787 5788 5785 5782 5777 5776 5774 5791 5796 5795 5792 5790 5789 5784 5783 5782 5780 5778 5776 5773 5770 5767 5765 5762 5759 5756 5751 5747 5744 5741 5737 5734 5731 5728 5725 5721 5718
5753 5747 5740 5739 5759 5766 5757 5776 5782 5780 5784 5780 5770 5778 5789 5787 5789 5790 5789 5787 5785 5783 5780 5778 5776 5773 5771 5768 5764 5760 5758 5754 5750 5745 5741 5738 5735 5731 5727 5725 5721 5717 5713 5710
5749 5739 5729 5730 5740 5732 5757 5784 5787 5782 5782 5787 5786 5789 5792 5792 5793 5794 5793 5789 5785 5783 5780 5776 5774 5771 5769 5766 5762 5757 5753 5748 5743 5739 5736 5733 5729 5724 5720 5717 5713 5710 5707 5703
5755 5741 5726 5719 5721 5732 5759 5778 5780 5771 5770 5784 5784 5788 5790 5791 5785 5782 5789 5790 5786 5782 5780 5777 5773 5769 5765 5762 5757 5751 5746 5741 5737 5733 5730 5727 5723 5718 5714 5710 5706 5703 5699 5696
5747 5740 5725 5718 5716 5717 5746 5777 5788 5776 5756 5779 5782 5783 5785 5783 5764 5768 5783 5784 5781 5778 5776 5771 5767 5763 5758 5754 5751 5745 5739 5735 5731 5728 5725 5721 5717 5713 5708 5704 5700 5696 5693 5689
5723 5721 5716 5713 5712 5725 5758 5776 5780 5747 5749 5775 5780 5780 5780 5776 5776 5780 5781 5778 5775 5772 5769 5765 5760 5755 5752 5749 5745 5738 5733 5728 5726 5723 5719 5715 5711 5707 5703 5698 5694 5690 5686 5682
5711 5707 5707 5707 5706 5718 5760 5765 5755 5754 5770 5774 5776 5778 5778 5777 5779 5778 5775 5771 5768 5764 5761 5757 5751 5747 5745 5743 5738 5731 5726 5724 5721 5716 5711 5707 5704 5701 5697 5691 5687 5682 5678 5673
5709 5712 5712 5715 5721 5742 5756 5758 5765 5767 5766 5770 5771 5774 5775 5772 5771 5770 5766 5763 5760 5757 5754 5750 5744 5739 5737 5735 5731 5724 5720 5718 5714 5709 5703 5699 5696 5693 5689 5684 5679 5674 5669 5664
5711 5720 5715 5717 5729 5742 5751 5758 5762 5765 5765 5768 5770 5771 5771 5765 5764 5761 5758 5754 5751 5749 5746 5742 5737 5731 5727 5726 5724 5719 5715 5711 5706 5699 5694 5691 5687 5683 5680 5676 5671 5666 5660 5656
5703 5709 5707 5710 5724 5734 5743 5750 5755 5759 5762 5763 5763 5764 5763 5760 5757 5755 5751 5747 5745 5742 5739 5735 5729 5724 5721 5718 5715 5712 5708 5704 5698 5692 5688 5683 5679 5675 5670 5667 5663 5658 5653 5650
5700 5700 5699 5702 5717 5720 5729 5743 5750 5751 5752 5754 5755 5754 5756 5755 5750 5749 5745 5742 5739 5734 5731 5726 5722 5717 5713 5710 5707 5703 5701 5697 5691 5684 5680 5675 5671 5667 5662 5658 5654 5651 5647 5644